Location: Chakepay
(13.3931°S, 72.1925°W)
Time: 05:32:10
(UTC+00:00)

SJ 16-02 - Pass Details

Date: 15 November 2019
Orbit: 606 x 616 km, 75.0° (Epoch: 12 December)

Event Time Altitude Azimuth Distance (km) Brightness Sun altitude
Rises 07:36:44 0° 166° (SSE) 2,893 5.4 -34.7°
Reaches altitude 10° 07:39:46 10° 144° (SE) 1,980 4.7 -34.1°
Maximum altitude 07:42:30 16° 106° (ESE) 1,606 4.1 -33.5°
Drops below altitude 10° 07:45:14 10° 67° (ENE) 1,964 4.3 -33.0°
Enters shadow 07:47:40 - 48° (NE) 2,679 4.8 -32.5°
